Location: Eurasberg
(48.3353°N, 11.0839°E)
Time: 20:33:24
(UTC+00:00)

Cosmos 2082 Rocket - Pass Details

Date: 18 January 2026
Orbit: 831 x 853 km, 71.0° (Epoch: 13 February)

Event Time Altitude Azimuth Distance (km) Brightness Sun altitude
Exits shadow 04:12:00 30° 355° (N) 1,476 3.3 -27.4°
Maximum altitude 04:14:35 52° 56° (NE) 1,043 2.9 -26.9°
Drops below altitude 10° 04:20:07 10° 133° (SE) 2,472 5.2 -26.0°
Sets 04:22:38 0° 138° (SE) 3,406 6.0 -25.6°
